Temperature
14 14 14 14 14 14 14 15 15 15 15 15 15 14 14 14 14 14 14 14 14 14 14 14 14 14 14 14 14 13 13 14 13 14 14 14 14 13 13 14 13 14 13
15 14 14 14 14 14 14 14 14 14 14 14 14 14 14 14 14 14 14 13 13 13 14 14 14 14 14 14 14 13 13 13 13 14 13 13 13 13 13 13 13 13 13
15 14 14 14 14 14 14 14 14 14 14 14 14 14 14 14 13 13 13 13 13 13 13 13 14 14 13 13 13 13 13 13 13 13 13 13 13 13 13 13 13 13 13
14 14 14 14 14 14 14 14 14 14 14 14 14 14 13 13 13 13 13 13 13 13 13 13 14 13 13 13 13 13 13 13 13 13 13 13 13 13 13 13 13 13 13
14 14 14 14 14 14 14 13 14 14 14 14 14 13 13 13 13 13 13 13 13 13 13 13 13 13 13 13 13 13 13 13 13 13 13 13 13 12 12 12 12 12 12
14 14 13 13 13 13 13 13 13 13 14 13 13 13 13 13 13 13 13 13 13 13 13 13 13 13 13 13 13 13 13 13 13 13 13 12 12 12 12 12 12 12 12
14 14 13 13 13 13 13 13 13 13 13 13 13 13 13 13 13 13 13 13 13 13 13 13 13 13 13 13 13 13 13 13 13 12 12 12 12 12 12 12 12 12 12
14 13 13 13 13 13 13 13 13 13 13 13 13 13 13 13 13 13 13 13 13 13 13 13 13 13 13 13 13 13 13 13 12 12 12 12 12 12 12 12 12 12 12
13 13 13 13 13 12 12 12 13 13 13 13 13 13 13 13 13 13 13 13 13 13 13 13 13 13 13 13 13 13 12 12 12 12 12 12 12 12 11 11 11 11 11
13 12 12 12 12 12 12 12 12 12 12 12 12 13 13 13 13 13 13 12 12 12 12 12 12 12 12 12 12 12 12 12 12 12 12 12 12 11 11 11 11 11 11
12 12 12 12 12 12 12 12 12 12 12 12 12 12 12 12 12 12 12 12 12 12 12 12 12 12 12 12 12 12 12 12 12 12 12 11 11 11 11 11 11 11 11
12 12 12 12 12 11 11 11 11 11 12 12 12 12 12 12 12 12 12 12 12 12 12 12 11 11 12 12 12 11 12 11 11 11 11 11 11 11 11 11 11 11 11
12 11 11 11 11 11 11 11 11 11 11 11 11 11 11 11 11 11 11 11 11 11 11 11 11 11 11 11 11 11 11 11 11 11 11 11 10 10 10 10 10 10 10
11 11 11 11 11 11 11 11 11 11 11 11 11 11 11 11 11 11 11 11 11 11 11 11 11 11 11 11 11 11 11 11 11 10 10 10 10 10 10 10 10 10 10
11 11 11 11 11 11 11 11 11 11 11 11 11 11 11 11 11 11 10 10 10 10 10 10 10 10 10 10 10 10 10 10 10 10 10 10 10 10 10 9 9 9 9
11 11 11 11 10 10 10 10 10 10 10 10 10 10 10 10 10 10 10 10 10 10 10 10 10 10 10 10 10 10 10 10 10 10 10 10 10 10 9 9 9 9 9
11 11 10 10 10 10 10 10 10 10 10 10 10 10 10 10 10 10 10 10 10 10 9 9 9 9 9 9 9 9 9 9 9 9 9 9 9 9 9 9 9 9 9
11 10 10 10 10 10 10 10 10 10 10 10 9 9 9 9 9 9 9 9 9 9 9 9 9 9 9 9 9 9 9 9 9 9 9 9 9 9 9 9 9 9 9
11 10 10 10 10 10 10 9 9 9 9 9 9 9 9 9 9 9 9 9 9 9 9 8 8 8 8 8 8 8 8 8 8 8 8 8 8 8 8 8 8 8 8
10 10 10 10 10 9 9 9 9 9 8 9 9 9 9 9 8 8 8 8 8 8 8 8 8 8 8 8 8 8 8 8 8 8 8 8 8 8 8 8 8 8 8
10 10 10 10 9 9 9 9 9 9 9 8 8 8 8 8 8 8 8 8 8 8 8 8 8 8 8 7 7 7 7 7 7 7 7 7 7 7 7 7 7 7 7
10 9 9 9 9 9 9 9 9 9 8 8 8 8 8 8 8 8 8 8 7 7 7 7 7 7 7 7 7 6 6 6 7 7 7 7 7 7 7 7 7 7 7
9 9 9 9 9 9 8 8 8 8 7 7 8 8 7 7 7 7 7 7 7 7 7 7 7 7 7 6 6 6 6 6 6 6 6 6 6 6 6 6 6 6 6
9 9 9 9 9 8 8 8 8 8 8 8 8 7 7 7 7 7 7 7 7 7 6 6 6 6 6 6 6 6 6 6 5 5 6 6 6 6 6 6 6 6 6
9 9 8 8 8 8 8 8 8 8 7 7 7 7 7 7 7 6 6 6 6 6 6 6 6 6 6 6 5 5 5 5 5 5 5 5 5 5 5 5 5 5 5
8 8 8 8 8 8 7 7 7 7 7 7 7 7 6 6 6 6 6 6 6 6 5 5 5 5 5 5 5 5 5 5 5 4 4 4 4 5 5 5 5 5 5
Wind_Speed
4 6 10 10 11 12 11 11 11 11 11 11 11 10 10 11 11 11 11 11 11 10 10 10 10 10 11 11 11 11 11 11 12 12 11 11 11 12 11 12 11 10 10
6 9 11 11 12 12 11 11 11 11 10 10 10 10 10 10 10 10 10 10 10 10 9 9 9 9 10 10 10 10 10 10 10 10 10 10 10 10 10 10 10 9 10
8 9 11 12 12 12 11 11 11 11 10 10 10 10 9 9 9 10 10 10 10 9 9 8 9 9 9 9 9 9 9 9 9 9 9 8 8 9 9 9 9 9 9
9 10 10 12 12 12 12 11 11 11 10 10 9 9 9 9 9 9 9 9 9 8 8 8 8 9 8 8 8 8 7 7 7 7 6 6 6 7 8 8 8 8 8
8 9 10 12 12 12 11 11 11 10 10 10 9 9 9 9 8 9 8 8 8 8 8 8 8 8 7 7 7 7 7 7 7 7 6 5 5 6 7 7 7 7 7
7 9 10 12 12 11 11 11 10 10 10 10 9 9 9 8 8 8 8 7 7 7 7 7 7 7 7 6 6 6 7 7 7 7 5 4 3 5 6 6 6 6 6
7 8 10 11 11 11 10 10 10 10 10 10 9 8 8 8 8 7 7 6 7 7 7 7 7 6 6 5 5 6 6 6 6 5 5 3 3 5 5 5 5 5 5
8 8 9 10 10 10 10 9 9 9 9 10 9 9 8 7 7 7 6 6 6 6 6 6 6 5 5 5 5 5 5 5 5 4 4 3 3 4 4 4 4 4 4
8 7 7 8 9 10 9 9 9 9 9 9 9 9 8 7 6 6 6 5 5 5 6 5 5 5 5 5 5 5 5 5 5 4 3 2 2 3 3 3 3 3 3
6 6 6 7 7 7 8 9 9 9 8 8 8 8 8 7 6 5 5 5 5 5 5 5 4 4 4 4 4 4 4 5 5 4 3 1 1 2 2 2 2 2 3
5 4 5 5 6 6 7 7 8 8 8 7 7 7 7 5 4 4 4 4 4 4 4 4 3 3 3 3 3 3 3 3 3 2 2 1 1 1 1 1 1 1 2
6 4 4 5 5 6 5 6 6 6 6 6 5 6 5 5 4 4 4 4 3 3 3 2 2 2 3 2 2 2 2 2 2 1 1 1 0 0 1 1 0 0 1
6 5 4 4 5 5 5 5 5 5 5 5 5 5 5 5 4 3 3 3 2 2 2 2 2 2 2 2 1 1 1 1 1 1 1 1 1 1 1 0 0 1 2
6 6 5 5 5 5 5 4 4 4 3 3 4 4 4 3 2 2 2 2 2 2 2 2 2 2 1 1 1 0 0 0 0 1 2 2 2 2 2 2 2 2 2
6 6 6 5 5 5 4 4 4 4 4 4 4 4 4 3 2 2 1 1 1 1 2 1 1 1 1 1 0 0 1 1 1 2 2 3 3 3 3 3 3 3 3
7 6 6 6 6 5 4 3 3 4 5 5 4 4 4 3 3 2 1 1 1 1 1 2 1 1 0 1 1 1 1 2 2 2 3 3 3 3 3 3 3 3 4
7 7 6 6 6 6 5 4 4 4 5 4 4 4 4 3 3 2 1 1 1 1 1 2 1 1 1 1 1 1 1 1 2 2 2 2 2 2 3 3 4 4 5
7 7 7 6 6 5 5 4 4 4 5 4 4 4 4 3 3 3 1 1 1 1 2 2 1 1 0 1 1 2 1 1 1 2 1 2 2 2 3 4 4 5 5
8 8 7 6 6 5 5 4 4 4 4 4 4 3 3 3 4 3 1 1 1 1 1 1 1 1 1 0 1 2 2 1 1 1 1 2 2 2 2 3 5 6 6
8 7 7 6 6 5 4 3 3 3 2 3 3 3 4 3 3 3 2 1 2 1 1 1 1 0 1 1 1 2 2 2 1 1 2 1 2 2 2 2 3 5 6
6 7 7 7 6 5 4 4 4 3 3 2 3 4 4 4 4 3 2 1 2 2 2 2 1 1 0 0 1 2 3 3 2 2 1 1 1 2 2 2 2 3 4
7 7 7 8 7 7 5 4 3 3 2 3 2 3 4 4 4 4 3 2 2 1 2 1 1 1 0 0 1 1 2 3 2 2 1 1 1 1 1 2 2 3 3
7 8 7 8 8 7 6 4 3 2 2 1 1 2 2 3 3 3 4 3 3 3 3 3 2 2 2 1 0 2 1 3 3 3 2 2 1 2 2 2 3 4 4
7 7 7 7 7 7 7 6 6 5 4 3 3 2 2 3 3 4 4 3 3 2 3 3 2 2 2 2 1 1 1 2 1 2 3 2 2 3 3 3 3 4 4
6 6 6 6 6 6 7 7 7 5 4 2 2 2 2 2 3 3 4 3 3 2 3 3 2 2 2 2 2 1 1 1 1 2 4 3 3 3 3 3 3 3 4
4 5 5 6 5 5 6 6 7 7 5 4 3 3 3 2 2 3 3 3 3 2 3 3 3 3 3 3 2 2 2 2 2 2 3 4 4 4 4 3 3 3 4
Wind_Direction
180 176 155 145 140 136 131 127 124 120 116 114 109 105 103 101 101 99 96 94 92 89 88 86 85 85 83 84 83 81 80 77 76 74 75 74 76 76 75 73 71 70 71
163 162 154 146 139 137 133 128 125 121 119 117 116 112 109 107 105 104 99 96 93 90 89 89 87 84 83 84 83 81 80 79 75 72 72 71 72 75 75 73 71 71 70
141 148 150 145 139 137 134 131 128 125 122 120 119 116 113 111 107 107 102 99 94 90 89 88 88 84 83 82 81 81 81 79 76 74 71 63 68 75 75 75 73 70 69
139 142 145 145 138 135 134 134 130 128 126 125 121 118 117 115 112 111 105 99 94 89 88 89 89 85 83 81 81 79 78 77 76 72 68 63 67 76 77 76 73 71 69
132 136 144 144 141 138 136 135 135 133 129 128 125 122 119 117 112 112 109 102 95 91 90 90 91 88 84 80 77 75 74 75 70 66 71 69 67 78 78 75 74 70 67
126 131 142 144 144 142 139 137 138 136 133 132 128 124 122 118 113 107 106 104 99 95 96 93 91 90 84 81 81 79 75 72 67 67 75 73 74 88 84 79 77 75 69
131 130 139 139 141 144 142 138 137 139 136 135 132 128 124 119 114 110 104 107 106 101 100 97 94 91 83 77 83 78 72 72 69 68 62 66 89 98 92 85 79 79 70
132 131 138 141 139 137 137 139 138 136 137 135 132 130 125 120 116 113 111 111 110 109 106 101 99 94 83 77 82 76 66 65 64 62 53 65 96 101 97 87 78 75 69
128 129 131 137 140 141 138 134 132 134 136 135 134 131 125 120 118 116 113 114 119 119 111 105 102 96 85 78 76 70 64 58 59 57 45 45 90 105 105 96 82 73 65
125 130 128 128 132 136 142 141 136 130 132 131 129 126 121 115 113 114 113 116 125 129 122 111 106 96 83 75 68 63 60 57 57 50 35 43 96 104 102 96 77 57 47
132 129 128 124 122 127 137 141 139 135 128 125 124 116 108 98 95 101 110 113 127 131 128 124 115 100 81 70 66 55 53 56 49 34 23 48 70 89 108 107 73 40 16
157 154 141 138 134 128 128 122 119 122 118 114 111 120 116 108 100 97 103 108 109 120 124 127 111 92 77 64 54 43 48 48 44 11 20 32 338 138 132 115 93 357 338
167 165 160 152 141 133 127 125 119 118 116 114 115 114 121 115 104 88 83 84 76 78 72 72 67 69 78 80 61 45 37 45 22 330 294 302 262 247 229 222 276 321 319
167 176 173 160 149 144 138 139 138 132 130 128 128 119 115 111 111 100 94 94 84 78 73 65 61 59 68 93 125 107 334 242 222 287 271 276 273 260 248 248 264 276 299
177 180 182 168 160 155 147 149 146 146 146 140 133 132 128 128 132 135 146 123 115 111 110 97 83 58 42 7 276 196 262 246 237 257 266 270 264 259 252 259 273 274 285
185 183 182 174 167 157 158 159 157 156 147 134 130 137 138 136 147 141 128 129 156 153 147 146 134 112 8 349 326 288 253 239 234 246 259 270 265 264 261 268 279 285 288
185 180 180 179 169 165 165 166 162 159 146 141 141 143 142 142 144 145 142 160 196 175 141 129 110 108 87 8 313 303 285 257 246 242 246 252 255 268 271 276 277 287 294
178 176 182 179 168 169 167 162 159 159 150 149 146 145 149 148 140 137 140 204 207 148 134 150 158 136 125 330 315 307 311 301 267 242 220 208 215 247 271 272 277 285 292
184 178 180 177 172 172 166 156 154 156 155 158 152 153 161 156 146 141 156 175 140 129 146 173 163 160 177 309 309 320 314 297 289 259 237 223 212 219 255 274 281 285 291
185 180 179 175 174 170 156 143 143 148 154 154 159 168 168 165 159 149 157 161 145 138 164 164 161 140 161 206 326 332 312 295 293 266 250 239 221 229 241 253 276 283 287
181 180 180 178 175 163 159 161 166 178 177 180 185 179 179 177 173 161 166 168 162 171 181 174 165 139 307 82 39 339 323 306 286 281 266 246 258 252 242 245 267 278 288
182 183 182 183 178 174 176 179 175 166 174 186 188 182 183 182 181 180 173 180 183 175 167 170 145 159 275 98 121 24 317 319 311 302 287 252 263 300 276 261 258 269 278
186 187 188 185 179 177 170 155 133 107 95 132 194 195 192 187 187 184 183 178 182 181 196 201 183 176 200 262 212 154 181 239 300 299 285 271 278 285 269 272 268 272 273
193 188 184 179 175 173 165 164 164 170 182 198 195 199 197 190 188 188 183 184 186 189 198 208 201 200 179 214 263 254 219 189 218 288 301 296 290 276 273 282 280 272 274
183 180 181 173 171 172 171 173 173 180 188 181 173 179 192 195 193 189 186 185 188 201 208 202 200 202 201 201 210 225 257 281 225 229 277 298 301 275 270 262 259 261 268
174 170 169 170 177 177 176 178 179 181 179 173 183 191 199 206 206 200 194 193 198 203 209 208 203 202 207 205 211 213 216 220 224 223 254 284 289 288 280 262 250 253 266
Height
1517 1519 1520 1522 1523 1524 1524 1525 1526 1526 1527 1527 1528 1528 1529 1529 1529 1530 1530 1530 1530 1530 1531 1531 1531 1531 1531 1531 1531 1531 1531 1531 1531 1530 1530 1530 1530 1530 1530 1530 1529 1529 1530
1516 1518 1520 1521 1522 1523 1524 1525 1525 1526 1526 1527 1527 1528 1528 1529 1529 1530 1530 1530 1530 1531 1531 1531 1531 1531 1531 1531 1531 1531 1531 1531 1531 1531 1531 1531 1530 1530 1530 1530 1530 1530 1530
1516 1518 1519 1521 1522 1523 1524 1524 1525 1526 1526 1527 1527 1528 1528 1529 1529 1530 1530 1530 1531 1531 1531 1531 1531 1531 1531 1531 1531 1531 1531 1531 1531 1531 1531 1531 1531 1531 1531 1531 1531 1531 1531
1515 1517 1519 1520 1521 1522 1523 1524 1525 1525 1526 1526 1527 1527 1528 1529 1529 1529 1530 1530 1530 1531 1531 1531 1531 1531 1531 1532 1532 1532 1532 1532 1532 1531 1531 1531 1531 1531 1531 1531 1531 1531 1531
1515 1517 1518 1519 1520 1521 1522 1523 1524 1525 1525 1526 1526 1527 1528 1528 1529 1529 1529 1530 1530 1530 1530 1531 1531 1531 1531 1531 1531 1532 1532 1531 1531 1531 1531 1531 1531 1531 1531 1531 1531 1531 1531
1515 1516 1517 1519 1519 1521 1522 1522 1523 1524 1525 1525 1526 1527 1527 1528 1528 1529 1529 1529 1530 1530 1530 1530 1530 1530 1531 1531 1531 1531 1531 1531 1531 1531 1531 1531 1531 1531 1531 1531 1531 1531 1530
1514 1515 1517 1518 1519 1520 1521 1522 1522 1523 1524 1525 1525 1526 1526 1527 1527 1528 1528 1529 1529 1529 1529 1530 1529 1530 1530 1530 1530 1531 1531 1531 1531 1531 1531 1531 1531 1531 1531 1531 1530 1530 1530
1513 1515 1516 1517 1518 1519 1520 1521 1521 1522 1523 1524 1524 1525 1526 1526 1527 1527 1527 1528 1528 1528 1528 1529 1529 1529 1529 1529 1529 1530 1530 1530 1530 1530 1530 1530 1530 1530 1530 1530 1530 1530 1530
1513 1514 1515 1516 1517 1518 1519 1520 1520 1521 1522 1523 1523 1524 1525 1525 1526 1526 1526 1527 1527 1527 1527 1528 1528 1528 1528 1528 1528 1529 1529 1529 1529 1529 1529 1529 1529 1529 1529 1529 1529 1529 1529
1511 1513 1514 1515 1516 1517 1518 1519 1519 1520 1521 1522 1522 1523 1523 1524 1524 1525 1525 1525 1526 1526 1526 1526 1526 1527 1527 1527 1527 1527 1527 1528 1528 1528 1528 1528 1528 1528 1529 1529 1528 1528 1528
1510 1512 1512 1514 1515 1516 1517 1518 1518 1519 1520 1520 1521 1521 1522 1522 1523 1523 1524 1524 1525 1525 1525 1525 1525 1525 1526 1526 1526 1526 1526 1526 1527 1527 1527 1527 1527 1527 1527 1527 1527 1527 1527
1508 1509 1511 1512 1513 1514 1515 1516 1517 1517 1518 1519 1520 1520 1521 1521 1521 1522 1522 1523 1523 1524 1524 1524 1524 1524 1524 1524 1525 1525 1525 1525 1525 1525 1525 1525 1526 1526 1526 1526 1526 1525 1525
1506 1507 1509 1510 1511 1512 1513 1514 1515 1516 1516 1517 1518 1519 1519 1520 1520 1520 1520 1521 1521 1522 1522 1522 1523 1523 1523 1523 1523 1523 1523 1524 1523 1523 1523 1524 1524 1524 1524 1524 1524 1524 1523
1504 1505 1507 1508 1509 1510 1511 1512 1513 1514 1515 1515 1516 1516 1517 1518 1518 1518 1518 1519 1519 1519 1520 1520 1521 1521 1521 1521 1521 1521 1521 1521 1521 1521 1522 1522 1522 1522 1522 1522 1521 1521 1521
1501 1503 1504 1506 1507 1508 1509 1510 1511 1512 1512 1513 1514 1514 1515 1515 1516 1516 1516 1517 1517 1517 1518 1518 1519 1519 1519 1519 1519 1519 1519 1519 1519 1519 1519 1519 1520 1520 1520 1519 1519 1519 1519
1498 1500 1501 1503 1504 1505 1506 1507 1508 1509 1510 1511 1512 1512 1513 1513 1513 1514 1514 1514 1515 1515 1516 1516 1516 1517 1517 1517 1517 1517 1517 1517 1517 1517 1517 1517 1517 1517 1517 1517 1517 1516 1516
1495 1497 1498 1500 1501 1502 1504 1505 1506 1507 1508 1508 1509 1510 1510 1510 1511 1512 1512 1512 1513 1513 1513 1514 1514 1515 1515 1515 1515 1515 1515 1515 1515 1515 1515 1515 1515 1515 1515 1514 1514 1514 1514
1492 1494 1495 1497 1498 1499 1501 1502 1503 1504 1505 1506 1507 1507 1508 1508 1509 1509 1510 1510 1510 1510 1511 1511 1512 1512 1512 1512 1512 1512 1512 1512 1512 1512 1512 1512 1512 1512 1512 1512 1511 1511 1511
1488 1490 1492 1493 1495 1496 1498 1499 1500 1501 1502 1503 1504 1505 1505 1506 1506 1507 1507 1507 1508 1508 1508 1509 1509 1509 1509 1509 1509 1509 1509 1509 1509 1509 1509 1509 1509 1509 1509 1509 1508 1508 1507
1485 1487 1488 1490 1491 1493 1494 1496 1497 1498 1499 1500 1501 1502 1503 1503 1503 1504 1505 1505 1505 1506 1506 1507 1507 1507 1507 1507 1507 1506 1507 1507 1506 1506 1506 1506 1506 1506 1506 1506 1505 1505 1504
1481 1483 1484 1486 1487 1489 1490 1492 1493 1494 1496 1497 1498 1499 1500 1500 1501 1501 1502 1502 1503 1503 1503 1504 1504 1504 1504 1504 1504 1504 1503 1503 1503 1503 1503 1503 1503 1503 1503 1502 1502 1501 1501
1476 1478 1480 1482 1484 1485 1487 1489 1490 1492 1493 1494 1495 1496 1496 1497 1497 1498 1498 1499 1500 1500 1500 1501 1501 1501 1501 1501 1501 1501 1500 1501 1500 1500 1500 1500 1500 1500 1499 1499 1498 1497 1497
1472 1474 1476 1478 1480 1482 1484 1486 1487 1489 1489 1490 1491 1492 1493 1494 1494 1495 1495 1496 1496 1497 1497 1498 1498 1498 1498 1499 1499 1500 1499 1497 1497 1496 1496 1496 1496 1496 1496 1495 1494 1494 1493
1468 1471 1472 1474 1476 1479 1481 1482 1483 1484 1485 1486 1487 1489 1490 1491 1491 1492 1492 1492 1493 1494 1494 1495 1495 1495 1495 1495 1496 1496 1497 1496 1495 1493 1493 1493 1493 1492 1492 1491 1491 1490 1489
1465 1467 1469 1471 1473 1475 1477 1479 1480 1481 1482 1484 1485 1485 1486 1487 1488 1488 1489 1489 1489 1490 1491 1491 1491 1492 1492 1492 1492 1493 1493 1493 1492 1492 1489 1489 1488 1488 1488 1487 1487 1486 1485
1463 1464 1466 1468 1470 1472 1474 1475 1477 1478 1479 1480 1481 1482 1483 1484 1484 1485 1485 1486 1486 1486 1487 1488 1488 1488 1488 1489 1489 1489 1489 1489 1489 1488 1487 1485 1484 1484 1484 1483 1483 1482 1481